map of MHV home
MHV - Airport
Location
City:  Mojave, California, United States
Name:Mojave Air and Space Port Airport
ICAO:KMHV
IATA:MHV
FAA LID:MHV

Details
Type:Airport (Airfield)
Use:Public/Civil
Latitude:35°03'32"N (35.058944)
Longitude:118°09'02"W (-118.150610)
Datum:WGS 1984
Elevation:2801 ft (854 m)
Variation:12.11°E (WMM2015v2 magnetic declination)
-0.08° annual change
Runways:3
Longest:12503 × 200 ft (3811 × 61 m), paved

Time
Time Zone:UTC-8 (DST-7)
Local Time:

Weather
METAR:KMHV 041400Z AUTO 23012KT 10SM FEW009 SCT013 SCT022 06/06 A2972 RMK A01

Related Locations
Nearby:
Farthest:ZSE: 11409 mi / 18361 km
St-Pierre (St-Pierre de la Réunion) [Pierrefonds], RE

Find:

   beyond  
but within

Other Information
Maps:
NOTAMs:
Links:
Sources:

  
  • flag of United States
  • flag of California
  

Airport Diagram

Airport diagram for MHV

Airport diagram PDF from FAA

Sectional Chart

Flight Planning
at skyvector.com

Satellite Image

Google Maps Satellite view

 

Copyright © 2004-2019 Karl L. Swartz. All rights reserved.
The Great Circle Mapper name and logo are trademarks of the Great Circle Mapper.
All other trademarks mentioned herein belong to their respective owners.
Please see credits for attibutions and further copyright information.

  Follow gcmap on Facebook Follow gcmap on Twitter GCmap on LinkedIn

hCard Microformat

Geo Microformat